Regional Weather Roundup
Issued by NWS Charleston, SC

Current Version | Previous Version | Graphics & Text | Print | Product List | Glossary On
Versions: 1 2 3 4 5 6 7 8 9 10 11 12 13 14 15 16 17 18 19 20 21 22 23 24 25 26 27 28 29 30 31 32 33 34 35 36 37 38 39 40 41 42 43 44 45 46 47 48 49 50
000
ASUS42 KCHS 210625
RWRCHS

REGIONAL WEATHER ROUNDUP
NATIONAL WEATHER SERVICE CHARLESTON SC
200 AM EDT TUE OCT 21 2014

NOTE: "FAIR" INDICATES FEW OR NO CLOUDS BELOW 12,000 FEET WITH NO
SIGNIFICANT WEATHER AND/OR OBSTRUCTIONS TO VISIBILITY.

NOT ALL STATIONS ARE QUALITY CONTROLLED BY THE NATIONAL
WEATHER SERVICE. USE DATA WITH CAUTION...ESPECIALLY
DEWPOINT OBSERVATIONS.

SCZ027-030-031-034>040-042>050-210700-
...SOUTH CAROLINA...

CITY           SKY/WX    TMP DP  RH WIND       PRES   REMARKS
N CHARLESTON   PTCLDY    63  60  90 N5        29.97F
6HR MIN TEMP:  63; 6HR MAX TEMP:  69;

WATERFRONT PRK   N/A     70 N/A N/A CALM        N/A
FORT JOHNSON   NOT AVBL
JOHNS ISLAND   CLEAR     64  64 100 CALM      29.96F
PINOPOLIS        N/A     66  61  82 CALM      29.89F
MONCKS CORNER  FAIR      59  59 100 CALM      29.96F
SUMMERVILLE    FAIR      59  59 100 CALM      29.97F
BEAUFORT MCAS  MOCLDY    67  65  93 CALM      29.96F
6HR MIN TEMP:  65; 6HR MAX TEMP:  68;

BEAUFORT ARPT  MOCLDY    64  64 100 CALM      29.96F
HILTON HEAD IS CLOUDY    66  64  94 CALM      29.96F
GEORGETOWN     NOT AVBL
WALTERBORO     MOCLDY    63 N/A N/A NW3       29.97F
ORANGEBURG     PTCLDY    55  53  93 CALM      29.97F FOG
6HR MIN TEMP:  56; 6HR MAX TEMP:  63;

BARNWELL       FAIR      54  52  94 CALM      29.99S
AIKEN          FAIR      52  52 100 CALM      30.02S
MANNING        FAIR      57 N/A N/A CALM      29.97F
KINGSTREE      NOT AVBL
COLUMBIA       MOCLDY    55  51  86 CALM      29.98S
6HR MIN TEMP:  54; 6HR MAX TEMP:  63;

SUMTER         MOCLDY    55  53  94 W3        29.96F
6HR MIN TEMP:  53; 6HR MAX TEMP:  63;

FLORENCE       PTCLDY    56  53  90 CALM      29.97F
6HR MIN TEMP:  55; 6HR MAX TEMP:  63;

MYRTLE BEACH   PTCLDY    61  55  82 CALM      29.97F
N MYRTLE BEACH PTCLDY    57  55  93 CALM      29.96F FOG
6HR MIN TEMP:  56; 6HR MAX TEMP:  63;


$$

GAZ063-065-086>088-099>101-113>116-118-119-134-136>141-150-210700-
...GEORGIA...

CITY           SKY/WX    TMP DP  RH WIND       PRES   REMARKS
SAVANNAH ARPT  HVY RAIN  68  64  88 CALM      29.98R FOG
6HR MIN TEMP:  66; 6HR MAX TEMP:  72; 6HR PCP:  0.08;

HUNTER AAF     LGT RAIN  68  64  88 NW15      29.94F
6HR MIN TEMP:  65; 6HR MAX TEMP:  70;

FORT STEWART   MOCLDY    66  63  87 CALM      29.96S
6HR MIN TEMP:  64; 6HR MAX TEMP:  69;

STATESBORO     NOT AVBL
SYLVANIA       PTCLDY    62  61  97 CALM      29.99R
CLAXTON        FAIR      63  63 100 CALM      29.97F FOG
THOMSON        CLEAR     51  51 100 CALM      30.04S
AUGUSTA-BUSH   CLEAR     50  48  93 CALM      29.99S
6HR MIN TEMP:  47; 6HR MAX TEMP:  63;

AUGUSTA-DANIEL CLEAR     61  51  70 CALM      29.99F
SWAINSBORO     MOCLDY    59  59 100 MISG      30.00S FOG
VIDALIA        CLEAR     59  57  94 CALM      29.99S
ALMA           PTCLDY    63  60  90 NW3       29.98S
6HR MIN TEMP:  61; 6HR MAX TEMP:  69;

WAYCROSS       PTCLDY    67  66  99 CALM      29.98R
JESUP          MOCLDY    66  64  94 CALM      29.97F
BRUNSWICK      MOCLDY    63  61  94 CALM      29.97F VSB 1/2
SAINT SIMONS   PTCLDY    66  66 100 SW3       29.96F
6HR MIN TEMP:  66; 6HR MAX TEMP:  72;


$$

SCZ027-028-034-036>038-045-046-048>050-GAZ119-141-210700-
...LAKE AND SUPPLEMENTAL COASTAL OBSERVATIONS...

STATION/POSITION TIME  TEMP    WIND        PRES    WAVE   SWELL
                       AIR SEA DIR/SP/G            HT/PER HT/PER/DIR
                 (UTC) (F)     (DEG/KT/KT) (MB)    (FT/S) (FT/S/D)
UPR LAKE MARION  NOT AVBL
WINYAH BAY       0600   59     310/  2     1015.0S
LAKE MURRAY      0600   60        CALM     1014.6F
ACE BASIN NERRS  0600   65     350/  2     1014.0S
FORT PULASKI     0600   71     230/  1/  2 1014.4F
SAPELO ISLAND    NOT AVBL

$$

ANZ835-935-AMZ111-154-330-350-352-354-374-450-454-472-210700-
...C-MAN AND BUOY OBSERVATIONS...

STATION/POSITION TIME  TEMP    WIND        PRES    WAVE   SWELL
                       AIR SEA DIR/SP/G            HT/PER HT/PER/DIR
                 (UTC) (F)     (DEG/KT/KT) (MB)    (FT/S) (FT/S/D)
FOLLY BEACH CMAN 0600   69     330/  2/  3 1015.1F
BUOY 41004       0600   72 79  150/  4/  6 1014.6F   2/ 9   2/ 9
BUOY 41008       0600   76 76  200/ 10/ 12 1014.4F   2/ 9   2/ 70/ 9
5E ST. MARYS GA  0600      77                N/A     2/ 9
FRYING PAN BUOY  0600   74 75  280/ 14/ 16 1015.2F   3/ 4   2/110/ 8
BUOY 41025       0600   73     170/ 16/ 19 1014.6F   4/11   2/ 70/11
CAPE LOOKOUT NC  0600   68      50/  5/  5 1014.0F
BUOY 41002       0539   75 80  180/ 16/ 17 1016.2F   4/12   3/ 40/12
BUOY 41010       0600   80 80  200/ 10/ 12 1014.8F   3/ 9   3/ 70/ 9
BUOY 41012       NOT AVBL
ST AUGUSTINE FL  0600   74     220/  4/  6 1015.2S
CAPERS NEARSHORE 0500   72      CALM  /  2   N/A
FRIPP NEARSHORE  NOT AVBL


$$



USA.gov is the U.S. government's official web portal to all federal, state and local government web resources and services.